Regional Weather Roundup
Issued by NWS

Home | Current Version | Previous Version | Graphics & Text | Print | Product List | Glossary On
Versions: 1 2 3 4 5 6 7 8 9 10 11 12 13 14 15 16 17 18 19 20 21 22 23 24 25 26 27 28 29 30 31 32 33 34 35 36 37 38 39 40 41 42 43 44 45 46 47 48 49 50
204
ASUS43 KLMK 270910
RWRKY
KENTUCKY REGIONAL WEATHER ROUNDUP
NATIONAL WEATHER SERVICE LOUISVILLE KY
500 AM EDT MON MAR 27 2017

NOTE "FAIR" INDICATES FEW OR NO CLOUDS BELOW 12,000 FEET
WITH NO SIGNIFICANT WEATHER AND/OR OBSTRUCTIONS TO VISIBILITY.

KYZ001>023-026-027-061>063-070>075-271000-
WESTERN AND SOUTH CENTRAL KENTUCKY

CITY           SKY/WX    TMP DP  RH WIND       PRES   REMARKS
PADUCAH        PTCLDY    51  47  86 E5        29.89F
HENDERSON      PTCLDY    46  41  81 CALM      29.92F
OWENSBORO      CLOUDY    48  47  96 SE5       29.94F
HOPKINSVILLE   CLOUDY    52  50  95 E5        29.92F
BOWLING GREEN  CLOUDY    51  50  96 CALM      29.95S
GLASGOW        PTCLDY    53  53 100 CALM      29.96F
$$

KYZ024-025-028>034-038-045-046-053-271000-
NORTH CENTRAL KENTUCKY

CITY           SKY/WX    TMP DP  RH WIND       PRES   REMARKS
LOUISVILLE/SDF CLOUDY    53  48  83 CALM      29.96S
LOUISVILLE/LOU PTCLDY    52  48  86 CALM      29.97S
FORT KNOX      CLOUDY    50  50  99 CALM      29.95S
$$

KYZ035>037-039>044-047>052-055>060-089>105-271000-
NORTHEAST KENTUCKY

CITY           SKY/WX    TMP DP  RH WIND       PRES   REMARKS
LEXINGTON      CLOUDY    55  51  86 CALM      29.98F
COVINGTON      PTCLDY    50  49  96 CALM      29.96S
FRANKFORT      CLOUDY    53  49  86 CALM      29.97S
$$

KYZ054-064>069-076>088-106>120-271000-
SOUTHEAST KENTUCKY

CITY           SKY/WX    TMP DP  RH WIND       PRES   REMARKS
JACKSON        CLEAR     56  53  90 CALM      30.00S
LONDON         CLEAR     50  47  89 CALM      29.99S FOG
SOMERSET       CLEAR     50  50 100 CALM      30.00F
MIDDLESBORO    PTCLDY    47  47 100 CALM      30.03S
MONTICELLO     SUNNY     49  49 100 W8        30.00F
$$





USA.gov is the U.S. government's official web portal to all federal, state and local government web resources and services.